SCP
0 0 0 0 0 0 0 0 0 0 0 0 0 0 0 0 0 0 0 0 0 0 0 0 0 0 0 0 0 0 0 0 0 0 0 0 0 0 0 0 0 0 0 0
0 0 0 0 0 0 0 0 0 0 0 0 0 0 0 0 0 0 0 0 0 0 0 0 0 0 0 0 0 0 0 0 0 0 0 0 0 0 0 0 0 0 0 0
0 0 0 0 0 0 0 0 0 0 0 0 0 0 0 0 0 0 0 0 0 0 0 0 0 0 0 0 0 0 0 0 0 0 0 0 0 0 0 0 0 0 0 0
0 0 0 0 0 0 0 0 0 0 0 0 0 0 0 0 0 0 0 0 0 0 0 0 0 0 0 0 0 0 0 0 0 0 0 0 0 0 0 0 0 0 0 0
0 0 0 0 0 0 0 0 0 0 0 0 0 0 0 0 0 0 0 0 0 0 0 0 0 0 0 0 0 0 0 0 0 0 0 0 0 0 0 0 0 0 0 0
0 0 0 0 0 0 0 0 0 0 0 0 0 0 0 0 0 0 0 0 0 0 0 0 0 0 0 0 0 0 0 0 0 0 0 0 0 0 0 0 0 0 0 0
0 0 0 0 0 0 0 0 0 0 0 0 0 0 0 0 0 0 0 0 0 0 0 0 0 0 0 0 0 0 0 0 0 0 0 0 0 0 0 0 0 0 0 0
0 0 0 0 0 0 0 0 0 0 0 0 0 0 0 0 0 0 0 0 0 0 0 0 0 0 0 0 0 0 0 0 0 0 0 0 0 0 0 0 0 0 0 0
0 0 0 0 0 0 0 0 0 0 0 0 0 0 0 0 0 0 0 0 0 0 0 0 0 0 0 0 0 0 0 0 0 0 0 0 0 0 0 0 0 0 0 0
0 0 0 0 0 0 0 0 0 0 0 0 0 0 0 0 0 0 0 0 0 0 0 0 0 0 0 0 0 0 0 0 0 0 0 0 0 0 0 0 0 0 0 0
0 0 0 0 0 0 0 0 0 0 0 0 0 0 0 0 0 0 0 0 0 0 0 0 0 0 0 0 0 0 0 0 0 0 0 0 0 0 0 0 0 0 0 0
0 0 0 0 0 0 0 0 0 0 0 0 0 0 0 0 0 0 0 0 0 0 0 0 0 0 0 0 0 0 0 0 0 0 0 0 0 0 0 0 0 0 0 0
0 0 0 0 0 0 0 0 0 0 0 0 0 0 0 0 0 0 0 0 0 0 0 0 0 0 0 0 0 0 0 0 0 0 0 0 0 0 0 0 0 0 0 0
0 0 0 0 0 0 0 0 0 0 0 -0 0 0 0 0 0 0 0 0 0 0 0 0 0 0 0 0 0 0 0 0 0 0 0 0 0 0 0 0 0 0 0 0
0 0 0 0 0 -0 -0 -0 -0 -0 -0 0 0 0 0 0 0 0 0 0 0 0 0 0 0 0 0 0 0 0 0 0 0 0 0 0 0 0 0 0 0 0 0 0
-0 -0 -0 -0 -0 -0 -0 -0 -0 -0 -0 -0 0 0 0 0 0 0 0 0 0 0 0 0 0 0 0 0 0 0 0 0 0 0 0 0 0 0 0 0 0 0 0 0
-0 -0 -0 0 0 -0 -0 -0 -0 -0 -0 -0 0 0 0 0 0 0 0 0 0 0 0 0 0 0 0 0 0 0 0 0 0 0 0 0 0 0 0 0 0 0 0 0
-0 -0 -0 -0 -0 -0 -0 -0 0 0 0 0 0 0 0 0 0 0 0 0 0 0 0 0 0 0 0 0 0 0 0 0 0 0 0 0 0 0 0 0 0 0 0 0
0 -0 -0 -0 0 0 0 0 0 0 0 0 0 0 0 0 0 0 0 0 0 0 0 0 0 0 0 0 0 0 0 0 0 0 0 0 0 0 0 0 0 0 0 0
-0 -0 -0 -0 0 0 0 0 0 0 0 0 0 0 0 0 0 0 0 0 0 0 0 0 0 0 0 0 0 0 0 0 0 0 0 0 0 0 0 0 0 0 0 0
0 0 0 0 0 0 0 0 0 0 0 0 0 0 0 0 0 0 0 0 0 0 0 0 0 0 0 0 0 0 0 0 0 0 0 0 0 0 0 0 0 0 0 0
0 0 0 0 0 0 0 0 0 0 0 0 0 0 0 0 0 0 0 0 0 0 0 0 0 0 0 0 0 0 0 0 0 0 0 0 0 0 0 0 0 0 0 0
-0 0 0 0 0 0 0 0 0 0 0 0 0 0 0 0 0 0 0 0 0 0 0 0 0 0 0 0 0 0 0 0 0 0 0 0 0 0 0 0 0 0 0 0
-0 0 0 0 0 0 0 0 0 0 0 0 0 0 0 0 0 0 0 0 0 0 0 0 0 0 0 0 0 0 0 0 0 0 0 0 0 0 0 0 0 0 0 0
0 0 0 0 0 0 0 0 0 0 0 0 0 0 0 0 0 0 0 0 0 0 0 0 0 0 0 0 0 0 0 0 0 0 0 0 0 0 0 0 0 0 0 0
0 0 0 0 0 0 0 0 0 0 0 0 0 0 0 0 0 0 0 0 0 0 0 0 0 0 0 0 0 0 0 0 0 0 0 0 0 0 0 0 0 0 0 0
0 0 0 0 0 0 0 0 0 0 0 0 0 0 0 0 0 0 0 0 0 0 0 0 0 0 0 0 0 0 0 0 0 0 0 0 0 0 0 0 0 0 0 0
Wind_Speed_500mb
8 10 6 10 20 15 9 10 9 11 15 11 10 13 30 36 41 44 44 41 37 32 29 26 21 15 11 8 8 11 17 24 31 38 43 44 46 47 47 47 48 50 50 47
13 18 11 8 11 15 9 9 11 11 6 10 21 19 19 20 25 33 36 36 37 35 33 28 21 15 10 8 12 20 28 34 38 40 41 42 43 44 44 43 43 45 46 48
3 10 10 7 12 11 8 7 15 11 8 14 6 7 5 11 14 16 26 35 42 41 36 27 18 15 12 12 21 29 34 35 36 37 40 42 42 42 43 44 46 47 49 50
6 5 5 8 7 3 10 10 5 9 10 12 12 13 8 9 11 15 22 32 41 41 32 23 20 16 15 21 26 30 34 35 36 38 37 37 39 41 44 46 48 49 51 54
9 5 7 4 7 12 12 11 8 10 9 6 10 9 5 6 10 14 22 31 34 30 24 21 16 16 21 25 29 31 30 33 34 34 35 38 40 43 45 46 48 50 54 57
6 12 9 8 5 10 8 6 14 18 16 18 23 6 6 15 19 25 28 27 25 24 22 17 16 20 24 27 27 27 31 32 34 35 36 38 42 44 48 50 51 53 55 58
5 4 13 10 8 11 13 10 25 26 25 26 8 7 11 23 23 23 23 24 23 18 13 16 19 23 26 26 27 31 31 33 34 36 38 40 44 48 50 52 54 56 55 53
5 8 6 14 7 14 6 32 33 29 23 17 13 10 16 21 22 23 22 20 16 16 17 20 24 25 25 27 32 33 34 35 39 41 44 45 47 48 50 51 52 53 54 53
8 8 2 10 5 4 26 38 29 26 18 12 12 16 19 22 25 25 22 21 21 22 23 24 23 25 27 33 34 35 37 41 44 45 46 46 45 45 47 50 52 53 53 52
8 1 11 12 11 19 20 23 24 19 9 8 12 20 26 31 31 29 26 27 27 29 29 25 26 28 33 35 36 38 41 44 45 47 46 46 45 45 45 47 48 49 49 51
8 14 12 18 27 27 24 20 18 20 19 17 19 25 29 32 33 31 31 31 32 33 30 28 29 33 35 35 38 41 43 46 48 48 45 43 42 42 43 45 46 46 46 50
10 17 11 6 12 26 30 30 28 28 25 24 26 26 28 32 33 33 32 34 36 34 32 33 34 35 38 38 41 42 44 47 46 44 42 41 40 38 41 41 40 42 45 50
8 8 16 10 8 5 10 10 11 13 21 28 29 32 35 34 32 32 36 38 40 38 40 38 38 39 42 41 42 43 45 45 44 43 41 41 42 43 41 37 40 40 45 50
30 21 16 19 9 14 22 21 25 31 34 34 34 35 35 36 37 39 41 37 41 44 44 44 43 40 44 43 42 44 44 43 42 40 39 39 41 43 43 45 45 43 44 53
27 40 31 22 17 21 30 38 40 35 33 33 34 35 37 40 44 41 39 45 46 47 49 47 45 38 47 45 44 44 41 40 39 37 36 38 39 38 40 43 46 50 54 56
17 21 26 31 34 37 33 35 37 36 34 35 37 38 38 42 46 47 47 47 49 48 43 49 45 42 50 44 42 39 37 36 36 33 34 35 36 38 40 43 46 52 58 65
13 20 29 31 27 25 27 23 27 26 29 40 40 39 44 49 52 51 46 47 47 45 46 46 43 49 47 42 40 38 35 34 32 32 32 33 36 38 40 44 51 56 59 62
28 19 16 19 21 23 25 27 29 29 30 27 32 41 46 48 49 44 43 47 47 44 45 43 47 48 44 41 38 35 33 31 30 29 31 32 34 35 39 46 51 59 63 62
36 30 25 21 17 16 16 17 20 23 26 31 37 41 43 47 48 47 49 50 48 46 39 45 45 43 41 38 35 32 29 28 28 29 30 30 31 35 41 47 53 58 61 62
13 13 18 18 21 22 22 24 28 31 35 40 42 47 51 52 52 55 56 55 49 46 46 43 42 40 37 35 30 27 26 26 27 27 27 29 33 37 42 48 54 56 57 57
4 7 9 12 15 19 22 25 31 36 42 52 58 62 60 57 59 60 60 55 46 46 44 41 38 36 33 28 25 24 25 26 24 23 26 30 34 40 45 50 53 57 58 58
10 8 13 24 34 38 44 50 57 60 58 60 61 60 59 57 56 55 51 50 46 45 40 36 35 33 28 24 22 24 24 22 21 23 27 33 38 44 47 50 54 56 58 58
32 40 47 54 60 64 64 61 61 64 62 60 58 54 52 49 49 51 50 45 45 41 37 34 31 26 23 22 23 23 20 19 21 26 31 37 42 47 50 53 55 56 57 57
54 47 46 48 55 62 66 63 61 60 58 56 54 52 52 50 50 49 47 44 39 36 32 29 25 22 21 21 20 18 18 20 24 30 35 40 45 50 54 58 60 58 58 57
49 53 55 59 65 67 70 69 71 68 65 61 55 51 49 48 47 44 41 39 36 30 26 23 23 22 20 19 18 17 19 24 29 34 39 44 49 55 59 61 61 62 64 63
53 56 57 58 59 58 59 61 63 59 56 50 46 44 43 42 41 39 36 33 29 26 22 23 23 20 19 18 17 19 23 27 33 39 46 51 55 58 61 63 64 65 67 67
54 52 49 50 47 48 49 49 51 49 45 44 43 41 39 37 34 34 31 28 26 24 25 25 22 21 20 18 19 21 26 31 38 45 51 55 58 61 65 66 65 65 66 66
Wind_Direction_500mb
23 23 89 137 159 155 145 152 160 192 163 181 149 125 135 143 161 179 192 202 209 209 204 204 210 222 237 264 272 295 306 308 310 313 317 319 319 321 324 327 330 331 332 331
26 6 55 79 128 127 115 127 79 115 113 159 150 125 137 158 182 198 205 213 215 208 202 201 212 225 245 258 294 306 309 312 315 318 319 323 326 329 332 334 334 332 329 330
300 347 57 4 211 154 142 165 140 158 203 147 170 150 194 184 188 213 215 214 210 203 200 205 218 230 232 275 300 306 310 314 319 326 331 331 331 331 331 332 333 334 334 334
151 10 159 250 328 220 133 178 164 99 133 155 156 154 175 224 240 229 217 204 197 197 198 208 214 221 263 292 304 312 316 322 327 327 326 325 327 330 333 335 335 337 337 337
129 145 282 2 175 154 158 225 189 172 163 216 218 194 237 225 199 193 184 180 182 188 199 204 218 263 291 303 309 313 318 318 318 320 325 329 331 332 333 335 335 337 336 336
70 113 179 237 150 156 110 309 174 179 155 152 146 135 251 177 163 163 167 176 187 195 199 220 262 288 302 310 311 311 312 316 321 322 322 325 327 331 333 332 333 334 334 332
94 106 289 239 186 142 98 232 146 139 133 142 158 170 159 172 170 175 180 185 189 203 240 272 288 303 308 304 305 310 309 309 309 314 318 324 327 328 326 328 329 326 326 327
109 76 289 167 111 162 189 141 140 134 129 125 131 149 161 173 185 189 195 202 223 255 275 290 298 295 294 298 303 301 304 307 313 315 319 322 320 319 321 322 322 323 324 327
198 200 321 185 38 167 149 149 151 149 138 143 162 182 193 199 201 206 220 240 256 267 279 285 286 294 295 298 298 301 305 306 309 313 312 311 312 314 316 318 321 324 326 330
54 232 235 205 191 167 152 161 164 166 179 216 214 211 213 212 217 227 242 257 269 279 285 284 285 289 294 297 298 302 302 304 305 304 304 308 311 312 315 318 320 323 327 331
280 269 272 234 213 199 203 202 210 222 249 237 236 235 232 232 235 241 255 264 273 276 270 273 281 286 291 295 297 297 299 300 300 300 302 303 305 309 316 319 322 327 329 329
216 224 183 154 211 225 232 246 248 246 243 260 252 251 249 246 243 249 258 267 271 267 265 271 276 285 288 289 288 291 295 296 297 298 298 299 303 310 315 317 320 323 326 327
211 170 196 165 179 206 243 214 206 245 268 273 270 264 261 257 253 255 267 269 271 264 262 269 276 280 283 285 286 289 291 293 294 295 297 301 307 311 313 313 319 323 325 326
233 220 220 223 239 231 224 238 271 281 284 276 266 257 257 255 252 263 267 275 263 261 265 268 273 278 281 283 282 285 288 289 291 292 296 302 307 311 314 318 321 324 325 324
239 231 238 255 258 252 256 265 271 268 267 261 258 260 255 254 257 268 269 265 265 265 266 271 274 277 278 279 280 283 286 287 288 291 296 302 306 310 315 319 323 325 326 325
245 235 248 259 261 263 260 268 266 267 263 262 259 256 259 260 261 260 267 269 270 272 270 269 278 275 277 279 279 281 283 285 287 292 296 299 305 314 319 320 323 326 330 330
222 217 231 243 246 245 246 253 257 267 263 255 257 260 261 260 259 265 269 273 270 269 269 276 280 278 280 279 280 281 282 281 283 289 295 304 312 316 318 322 326 327 330 331
220 218 228 244 256 267 269 270 272 275 277 279 266 263 265 266 271 275 272 268 273 274 275 277 276 278 278 276 275 275 274 276 285 292 301 308 310 315 320 323 325 327 328 331
237 248 253 257 262 268 273 277 277 280 283 283 281 281 276 271 270 270 268 269 270 271 276 273 276 275 272 271 269 270 271 280 288 297 303 305 312 318 320 322 325 326 328 329
190 216 230 244 253 266 276 282 282 280 285 285 283 279 277 276 275 272 268 266 267 267 272 276 275 270 267 265 264 265 271 281 291 295 300 307 313 318 320 323 325 327 328 327
287 288 287 289 298 301 303 304 304 305 303 295 290 285 283 277 268 265 266 268 269 267 270 271 268 266 265 264 263 265 276 286 289 292 300 308 314 317 321 323 327 328 326 323
39 8 329 318 314 308 311 309 308 305 300 297 292 286 282 279 275 273 270 269 267 266 267 264 263 263 262 263 264 273 280 279 283 295 306 311 314 317 321 324 326 324 319 317
336 323 314 311 308 307 307 307 304 300 299 299 298 296 291 285 276 270 270 268 263 260 258 259 258 254 254 256 263 267 268 277 293 304 307 311 314 317 321 323 322 318 315 317
312 311 307 302 296 295 298 301 300 299 299 298 296 291 286 282 275 270 267 262 258 257 255 250 246 247 246 252 258 258 270 287 297 303 308 312 315 319 321 318 315 313 313 315
309 305 304 303 300 302 301 301 298 298 299 298 296 291 284 277 271 266 260 253 252 251 242 236 241 238 242 250 246 260 277 292 301 306 310 315 318 318 314 310 310 312 313 313
300 296 293 292 295 298 297 296 297 300 298 295 290 284 277 269 262 255 249 250 241 233 226 230 230 236 241 237 254 272 288 299 307 312 316 317 315 311 310 311 313 313 312 311
299 301 303 302 304 303 304 306 305 305 297 292 286 279 271 264 255 251 244 230 217 218 221 221 231 228 229 245 264 284 297 306 312 315 314 312 312 313 314 316 318 319 318 316
Wind_Speed_850mb
8 10 6 10 20 15 9 10 9 11 15 11 10 13 30 36 41 44 44 41 37 32 29 26 21 15 11 8 8 11 17 24 31 38 43 44 46 47 47 47 48 50 50 47
13 18 11 8 11 15 9 9 11 11 6 10 21 19 19 20 25 33 36 36 37 35 33 28 21 15 10 8 12 20 28 34 38 40 41 42 43 44 44 43 43 45 46 48
3 10 10 7 12 11 8 7 15 11 8 14 6 7 5 11 14 16 26 35 42 41 36 27 18 15 12 12 21 29 34 35 36 37 40 42 42 42 43 44 46 47 49 50
6 5 5 8 7 3 10 10 5 9 10 12 12 13 8 9 11 15 22 32 41 41 32 23 20 16 15 21 26 30 34 35 36 38 37 37 39 41 44 46 48 49 51 54
9 5 7 4 7 12 12 11 8 10 9 6 10 9 5 6 10 14 22 31 34 30 24 21 16 16 21 25 29 31 30 33 34 34 35 38 40 43 45 46 48 50 54 57
6 12 9 8 5 10 8 6 14 18 16 18 23 6 6 15 19 25 28 27 25 24 22 17 16 20 24 27 27 27 31 32 34 35 36 38 42 44 48 50 51 53 55 58
5 4 13 10 8 11 13 10 25 26 25 26 8 7 11 23 23 23 23 24 23 18 13 16 19 23 26 26 27 31 31 33 34 36 38 40 44 48 50 52 54 56 55 53
5 8 6 14 7 14 6 32 33 29 23 17 13 10 16 21 22 23 22 20 16 16 17 20 24 25 25 27 32 33 34 35 39 41 44 45 47 48 50 51 52 53 54 53
8 8 2 10 5 4 26 38 29 26 18 12 12 16 19 22 25 25 22 21 21 22 23 24 23 25 27 33 34 35 37 41 44 45 46 46 45 45 47 50 52 53 53 52
8 1 11 12 11 19 20 23 24 19 9 8 12 20 26 31 31 29 26 27 27 29 29 25 26 28 33 35 36 38 41 44 45 47 46 46 45 45 45 47 48 49 49 51
8 14 12 18 27 27 24 20 18 20 19 17 19 25 29 32 33 31 31 31 32 33 30 28 29 33 35 35 38 41 43 46 48 48 45 43 42 42 43 45 46 46 46 50
10 17 11 6 12 26 30 30 28 28 25 24 26 26 28 32 33 33 32 34 36 34 32 33 34 35 38 38 41 42 44 47 46 44 42 41 40 38 41 41 40 42 45 50
8 8 16 10 8 5 10 10 11 13 21 28 29 32 35 34 32 32 36 38 40 38 40 38 38 39 42 41 42 43 45 45 44 43 41 41 42 43 41 37 40 40 45 50
30 21 16 19 9 14 22 21 25 31 34 34 34 35 35 36 37 39 41 37 41 44 44 44 43 40 44 43 42 44 44 43 42 40 39 39 41 43 43 45 45 43 44 53
27 40 31 22 17 21 30 38 40 35 33 33 34 35 37 40 44 41 39 45 46 47 49 47 45 38 47 45 44 44 41 40 39 37 36 38 39 38 40 43 46 50 54 56
17 21 26 31 34 37 33 35 37 36 34 35 37 38 38 42 46 47 47 47 49 48 43 49 45 42 50 44 42 39 37 36 36 33 34 35 36 38 40 43 46 52 58 65
13 20 29 31 27 25 27 23 27 26 29 40 40 39 44 49 52 51 46 47 47 45 46 46 43 49 47 42 40 38 35 34 32 32 32 33 36 38 40 44 51 56 59 62
28 19 16 19 21 23 25 27 29 29 30 27 32 41 46 48 49 44 43 47 47 44 45 43 47 48 44 41 38 35 33 31 30 29 31 32 34 35 39 46 51 59 63 62
36 30 25 21 17 16 16 17 20 23 26 31 37 41 43 47 48 47 49 50 48 46 39 45 45 43 41 38 35 32 29 28 28 29 30 30 31 35 41 47 53 58 61 62
13 13 18 18 21 22 22 24 28 31 35 40 42 47 51 52 52 55 56 55 49 46 46 43 42 40 37 35 30 27 26 26 27 27 27 29 33 37 42 48 54 56 57 57
4 7 9 12 15 19 22 25 31 36 42 52 58 62 60 57 59 60 60 55 46 46 44 41 38 36 33 28 25 24 25 26 24 23 26 30 34 40 45 50 53 57 58 58
10 8 13 24 34 38 44 50 57 60 58 60 61 60 59 57 56 55 51 50 46 45 40 36 35 33 28 24 22 24 24 22 21 23 27 33 38 44 47 50 54 56 58 58
32 40 47 54 60 64 64 61 61 64 62 60 58 54 52 49 49 51 50 45 45 41 37 34 31 26 23 22 23 23 20 19 21 26 31 37 42 47 50 53 55 56 57 57
54 47 46 48 55 62 66 63 61 60 58 56 54 52 52 50 50 49 47 44 39 36 32 29 25 22 21 21 20 18 18 20 24 30 35 40 45 50 54 58 60 58 58 57
49 53 55 59 65 67 70 69 71 68 65 61 55 51 49 48 47 44 41 39 36 30 26 23 23 22 20 19 18 17 19 24 29 34 39 44 49 55 59 61 61 62 64 63
53 56 57 58 59 58 59 61 63 59 56 50 46 44 43 42 41 39 36 33 29 26 22 23 23 20 19 18 17 19 23 27 33 39 46 51 55 58 61 63 64 65 67 67
54 52 49 50 47 48 49 49 51 49 45 44 43 41 39 37 34 34 31 28 26 24 25 25 22 21 20 18 19 21 26 31 38 45 51 55 58 61 65 66 65 65 66 66
Wind_Direction_850mb
23 23 89 137 159 155 145 152 160 192 163 181 149 125 135 143 161 179 192 202 209 209 204 204 210 222 237 264 272 295 306 308 310 313 317 319 319 321 324 327 330 331 332 331
26 6 55 79 128 127 115 127 79 115 113 159 150 125 137 158 182 198 205 213 215 208 202 201 212 225 245 258 294 306 309 312 315 318 319 323 326 329 332 334 334 332 329 330
300 347 57 4 211 154 142 165 140 158 203 147 170 150 194 184 188 213 215 214 210 203 200 205 218 230 232 275 300 306 310 314 319 326 331 331 331 331 331 332 333 334 334 334
151 10 159 250 328 220 133 178 164 99 133 155 156 154 175 224 240 229 217 204 197 197 198 208 214 221 263 292 304 312 316 322 327 327 326 325 327 330 333 335 335 337 337 337
129 145 282 2 175 154 158 225 189 172 163 216 218 194 237 225 199 193 184 180 182 188 199 204 218 263 291 303 309 313 318 318 318 320 325 329 331 332 333 335 335 337 336 336
70 113 179 237 150 156 110 309 174 179 155 152 146 135 251 177 163 163 167 176 187 195 199 220 262 288 302 310 311 311 312 316 321 322 322 325 327 331 333 332 333 334 334 332
94 106 289 239 186 142 98 232 146 139 133 142 158 170 159 172 170 175 180 185 189 203 240 272 288 303 308 304 305 310 309 309 309 314 318 324 327 328 326 328 329 326 326 327
109 76 289 167 111 162 189 141 140 134 129 125 131 149 161 173 185 189 195 202 223 255 275 290 298 295 294 298 303 301 304 307 313 315 319 322 320 319 321 322 322 323 324 327
198 200 321 185 38 167 149 149 151 149 138 143 162 182 193 199 201 206 220 240 256 267 279 285 286 294 295 298 298 301 305 306 309 313 312 311 312 314 316 318 321 324 326 330
54 232 235 205 191 167 152 161 164 166 179 216 214 211 213 212 217 227 242 257 269 279 285 284 285 289 294 297 298 302 302 304 305 304 304 308 311 312 315 318 320 323 327 331
280 269 272 234 213 199 203 202 210 222 249 237 236 235 232 232 235 241 255 264 273 276 270 273 281 286 291 295 297 297 299 300 300 300 302 303 305 309 316 319 322 327 329 329
216 224 183 154 211 225 232 246 248 246 243 260 252 251 249 246 243 249 258 267 271 267 265 271 276 285 288 289 288 291 295 296 297 298 298 299 303 310 315 317 320 323 326 327
211 170 196 165 179 206 243 214 206 245 268 273 270 264 261 257 253 255 267 269 271 264 262 269 276 280 283 285 286 289 291 293 294 295 297 301 307 311 313 313 319 323 325 326
233 220 220 223 239 231 224 238 271 281 284 276 266 257 257 255 252 263 267 275 263 261 265 268 273 278 281 283 282 285 288 289 291 292 296 302 307 311 314 318 321 324 325 324
239 231 238 255 258 252 256 265 271 268 267 261 258 260 255 254 257 268 269 265 265 265 266 271 274 277 278 279 280 283 286 287 288 291 296 302 306 310 315 319 323 325 326 325
245 235 248 259 261 263 260 268 266 267 263 262 259 256 259 260 261 260 267 269 270 272 270 269 278 275 277 279 279 281 283 285 287 292 296 299 305 314 319 320 323 326 330 330
222 217 231 243 246 245 246 253 257 267 263 255 257 260 261 260 259 265 269 273 270 269 269 276 280 278 280 279 280 281 282 281 283 289 295 304 312 316 318 322 326 327 330 331
220 218 228 244 256 267 269 270 272 275 277 279 266 263 265 266 271 275 272 268 273 274 275 277 276 278 278 276 275 275 274 276 285 292 301 308 310 315 320 323 325 327 328 331
237 248 253 257 262 268 273 277 277 280 283 283 281 281 276 271 270 270 268 269 270 271 276 273 276 275 272 271 269 270 271 280 288 297 303 305 312 318 320 322 325 326 328 329
190 216 230 244 253 266 276 282 282 280 285 285 283 279 277 276 275 272 268 266 267 267 272 276 275 270 267 265 264 265 271 281 291 295 300 307 313 318 320 323 325 327 328 327
287 288 287 289 298 301 303 304 304 305 303 295 290 285 283 277 268 265 266 268 269 267 270 271 268 266 265 264 263 265 276 286 289 292 300 308 314 317 321 323 327 328 326 323
39 8 329 318 314 308 311 309 308 305 300 297 292 286 282 279 275 273 270 269 267 266 267 264 263 263 262 263 264 273 280 279 283 295 306 311 314 317 321 324 326 324 319 317
336 323 314 311 308 307 307 307 304 300 299 299 298 296 291 285 276 270 270 268 263 260 258 259 258 254 254 256 263 267 268 277 293 304 307 311 314 317 321 323 322 318 315 317
312 311 307 302 296 295 298 301 300 299 299 298 296 291 286 282 275 270 267 262 258 257 255 250 246 247 246 252 258 258 270 287 297 303 308 312 315 319 321 318 315 313 313 315
309 305 304 303 300 302 301 301 298 298 299 298 296 291 284 277 271 266 260 253 252 251 242 236 241 238 242 250 246 260 277 292 301 306 310 315 318 318 314 310 310 312 313 313
300 296 293 292 295 298 297 296 297 300 298 295 290 284 277 269 262 255 249 250 241 233 226 230 230 236 241 237 254 272 288 299 307 312 316 317 315 311 310 311 313 313 312 311
299 301 303 302 304 303 304 306 305 305 297 292 286 279 271 264 255 251 244 230 217 218 221 221 231 228 229 245 264 284 297 306 312 315 314 312 312 313 314 316 318 319 318 316